Location: Friedrichshafen
(47.6598°N, 9.4819°E)
Time: 07:51:54
(UTC+02:00)

ISS - Visible Passes

Search period start: 09 May 2021 00:00
Search period end: 19 May 2021 00:00
Orbit: 418 x 421 km, 51.6° (Epoch: 08 May)

Date Brightness Start Highest point End Pass type
(mag) Time Alt. Az. Time Alt. Az. Time Alt. Az.
09 May -1.8 02:03:26 24° ENE 02:03:26 24° ENE 02:04:57 10° ENE visible
09 May -2.5 03:36:23 17° WNW 03:38:37 41° N 03:41:51 10° ENE visible
09 May -3.0 05:12:28 10° WNW 05:15:49 56° NNE 05:19:09 10° E visible
10 May -0.8 01:17:27 10° ENE 01:17:27 10° ENE 01:17:31 10° ENE visible
10 May -2.7 02:50:22 37° NW 02:51:06 44° N 02:54:22 10° ENE visible
10 May -2.7 04:25:01 10° WNW 04:28:18 47° N 04:31:36 10° E visible
11 May -2.5 02:04:21 41° NNE 02:04:21 41° NNE 02:06:54 10° ENE visible
11 May -2.5 03:37:32 10° WNW 03:40:47 42° N 03:44:01 10° E visible
12 May -1.5 01:18:16 20° ENE 01:18:16 20° ENE 01:19:28 10° ENE visible
12 May -2.4 02:51:12 19° WNW 02:53:14 40° N 02:56:28 10° ENE visible
12 May -3.5 04:26:58 10° WNW 04:30:21 73° NNE 04:33:44 10° ESE visible
13 May -2.5 02:05:02 36° NW 02:05:42 41° N 02:08:56 10° ENE visible
13 May -3.1 03:39:32 10° WNW 03:42:52 57° NNE 03:46:13 10° E visible
14 May -2.5 01:18:37 41° NNE 01:18:37 41° NNE 01:21:26 10° ENE visible
14 May -2.7 02:52:05 10° WNW 02:55:22 47° NNE 02:58:40 10° E visible
14 May -3.7 04:28:56 10° WNW 04:32:15 56° SSW 04:35:35 10° SE visible
14 May -3.5 22:50:36 10° SW 22:53:49 44° SSE 22:55:39 22° E visible
15 May -3.0 00:27:20 10° W 00:30:38 52° NNW 00:33:57 10° ENE visible
15 May -2.5 02:04:35 10° WNW 02:07:50 42° N 02:11:05 10° E visible
15 May -3.9 03:41:28 10° WNW 03:44:52 82° SSW 03:48:14 10° ESE visible
15 May -2.9 22:03:32 10° SSW 22:06:30 29° SE 22:09:29 10° E visible
15 May -3.4 23:39:47 10° WSW 23:43:08 65° NNW 23:46:31 10° ENE visible
16 May -2.4 01:17:05 10° WNW 01:20:18 40° N 01:23:31 10° ENE visible
16 May -3.6 02:54:01 10° WNW 02:57:24 74° NNE 03:00:47 10° ESE visible
16 May -2.7 04:31:10 10° W 04:33:59 24° SW 04:36:47 10° SSE visible
16 May -3.8 22:52:18 10° WSW 22:55:40 86° NNW 22:59:03 10° ENE visible
17 May -2.4 00:29:31 10° WNW 00:32:44 40° N 00:35:58 10° ENE visible
17 May -3.2 02:06:35 10° WNW 02:09:55 57° NNE 02:13:15 10° E visible
17 May -3.3 03:43:31 10° WNW 03:46:40 37° SW 03:49:48 10° SSE visible
17 May -3.8 22:04:54 10° SW 22:08:15 67° SSE 22:11:36 10° ENE visible
17 May -2.6 23:41:57 10° W 23:45:12 44° N 23:48:28 10° ENE visible
18 May -2.8 01:19:07 10° WNW 01:22:24 47° NNE 01:22:56 42° NE visible
18 May -2.9 22:54:22 10° W 22:57:40 51° NNW 23:00:59 10° ENE visible
